Cape Cod CGAS, MA

6:01 AM EDT on September 25, 2017 (GMT -0400)
Cape Cod Coast Guard Air Station

Weather History for KFMH - April, 2013

Change the Weather History Date:

Monday, April 22, 2013

  Actual Average Record
Temperature  
Mean Temperature 42 °F -  
Max Temperature 51 °F 54 °F 75 °F (2016)
Min Temperature 32 °F 37 °F 28 °F (2006)
Degree Days  
Heating Degree Days 24    
Moisture  
Dew Point 30 °F    
Average Humidity 65    
Maximum Humidity 87    
Minimum Humidity 35    
Precipitation  
Precipitation 0.00 in - - ()
Sea Level Pressure  
Sea Level Pressure 30.65 in    
Wind  
Wind Speed 10 mph (ENE)    
Max Wind Speed 20 mph    
Max Gust Speed 26 mph    
Visibility 10 miles    
Events      
Averages and records for this station are not official NWS values.
T = Trace of Precipitation, MM = Missing Value Source: NWS Daily Summary

Daily Weather History Graph

Daily Weather History Graph

Search for Another Location

Airport or City:

Trip Planner

Search our weather history database for the weather conditions in past years. The results will help you decide how hot, cold, wet, or windy it might be!

Date:

Astronomy

Apr. 22, 2013 Rise Set
Actual Time 5:51 AM EDT 7:30 PM EDT
Civil Twilight 5:21 AM EDT 8:00 PM EDT
Nautical Twilight 4:46 AM EDT 8:35 PM EDT
Astronomical Twilight 4:08 AM EDT 9:14 PM EDT
Moon 4:13 PM EDT (4/22) 3:46 AM EDT (4/22)
Length of Visible Light 14h 38m
Length of Day
13h 39m
Waxing Gibbous, 87% of the Moon is Illuminated
Apr 22
Waxing Gibbous
Apr 25
Full
May 2
Last Quarter
May 9
New
May 18
First Quarter

Hourly Weather History & Observations

Time (EDT) Temp. Windchill Dew Point Humidity Pressure Visibility Wind Dir Wind Speed Gust Speed Precip Events Conditions
12:15 AM 32.0 °F 26.4 °F 26.6 °F 80% 30.67 in 10.0 mi NNE 5.8 mph - N/A   Unknown
12:35 AM 32.0 °F 25.6 °F 26.6 °F 80% 30.66 in 10.0 mi North 6.9 mph - N/A   Unknown
12:55 AM 32.0 °F 26.4 °F 26.6 °F 80% 30.67 in 10.0 mi North 5.8 mph - N/A   Unknown
1:15 AM 33.8 °F 30.8 °F 26.6 °F 75% 30.67 in 10.0 mi NNE 3.5 mph - N/A   Unknown
1:35 AM 32.0 °F 27.5 °F 26.6 °F 80% 30.66 in 10.0 mi North 4.6 mph - N/A   Unknown
1:55 AM 33.8 °F 28.6 °F 26.6 °F 75% 30.66 in 10.0 mi North 5.8 mph - N/A   Unknown
2:15 AM 32.0 °F 26.4 °F 26.6 °F 80% 30.66 in 10.0 mi North 5.8 mph - N/A   Unknown
2:35 AM 32.0 °F 26.4 °F 26.6 °F 80% 30.67 in 10.0 mi North 5.8 mph - N/A   Unknown
2:55 AM 32.0 °F 25.6 °F 28.4 °F 87% 30.66 in 10.0 mi North 6.9 mph - N/A   Unknown
3:15 AM 32.0 °F 27.5 °F 26.6 °F 80% 30.67 in 10.0 mi North 4.6 mph - N/A   Unknown
3:35 AM 32.0 °F 28.7 °F 28.4 °F 87% 30.67 in 10.0 mi North 3.5 mph - N/A   Unknown
3:55 AM 32.0 °F 26.4 °F 28.4 °F 87% 30.67 in 10.0 mi NNE 5.8 mph - N/A   Unknown
4:35 AM 33.8 °F 28.6 °F 30.2 °F 87% 30.67 in 10.0 mi NNE 5.8 mph - N/A   Unknown
4:55 AM 35.6 °F 30.7 °F 30.2 °F 81% 30.68 in 10.0 mi NE 5.8 mph - N/A   Unknown
5:15 AM 35.6 °F 30.7 °F 30.2 °F 81% 30.68 in 10.0 mi NNE 5.8 mph - N/A   Unknown
5:35 AM 35.6 °F 29.2 °F 30.2 °F 81% 30.68 in 10.0 mi NNE 8.1 mph - N/A   Unknown
5:55 AM 35.6 °F 29.9 °F 32.0 °F 87% 30.68 in 10.0 mi NE 6.9 mph - N/A   Unknown
6:15 AM 35.6 °F 29.9 °F 32.0 °F 87% 30.68 in 10.0 mi NE 6.9 mph - N/A   Unknown
6:35 AM 37.4 °F 31.4 °F 32.0 °F 81% 30.69 in 10.0 mi NE 8.1 mph - N/A   Unknown
6:55 AM 39.2 °F 32.5 °F 32.0 °F 75% 30.69 in 10.0 mi NE 10.4 mph - N/A   Unknown
7:15 AM 41.0 °F 34.7 °F 32.0 °F 70% 30.70 in 10.0 mi NE 10.4 mph - N/A   Unknown
7:35 AM 42.8 °F 37.0 °F 33.8 °F 70% 30.70 in 10.0 mi ENE 10.4 mph - N/A   Unknown
7:55 AM 44.6 °F 39.2 °F 32.0 °F 61% 30.70 in 10.0 mi East 10.4 mph 19.6 mph N/A   Clear
8:15 AM 44.6 °F 36.6 °F 28.4 °F 53% 30.69 in 10.0 mi ENE 19.6 mph 25.3 mph N/A   Clear
8:35 AM 46.4 °F 39.2 °F 28.4 °F 50% 30.69 in 10.0 mi ENE 18.4 mph 23.0 mph N/A   Clear
8:55 AM 46.4 °F 39.8 °F 24.8 °F 43% 30.69 in 10.0 mi ESE 16.1 mph 24.2 mph N/A   Clear
9:15 AM 46.4 °F 40.7 °F 24.8 °F 43% 30.70 in 10.0 mi East 12.7 mph 23.0 mph N/A   Clear
9:35 AM 48.2 °F - 23.0 °F 37% 30.72 in 10.0 mi East 16.1 mph 24.2 mph N/A   Unknown
10:15 AM 48.2 °F - 23.0 °F 37% 30.72 in 10.0 mi East 13.8 mph 21.9 mph N/A   Unknown
10:35 AM 48.2 °F - 24.8 °F 40% 30.72 in 10.0 mi ESE 16.1 mph 20.7 mph N/A   Unknown
10:55 AM 50.0 °F - 26.6 °F 40% 30.71 in 10.0 mi East 16.1 mph 21.9 mph N/A   Unknown
11:15 AM 50.0 °F - 24.8 °F 37% 30.71 in 10.0 mi ENE 19.6 mph 25.3 mph N/A   Unknown
11:35 AM 50.0 °F - 23.0 °F 35% 30.69 in 10.0 mi ENE 15.0 mph 25.3 mph N/A   Unknown
11:55 AM 50.0 °F - 24.8 °F 37% 30.69 in 10.0 mi ENE 16.1 mph 26.5 mph N/A   Unknown
12:15 PM 50.0 °F - 26.6 °F 40% 30.68 in 10.0 mi East 10.4 mph 18.4 mph N/A   Unknown
12:35 PM 51.8 °F - 24.8 °F 35% 30.68 in 10.0 mi ENE 15.0 mph 21.9 mph N/A   Unknown
12:55 PM 50.0 °F - 30.2 °F 47% 30.68 in 10.0 mi ENE 17.3 mph 20.7 mph N/A   Unknown
1:15 PM 50.0 °F - 32.0 °F 50% 30.68 in 10.0 mi East 16.1 mph 25.3 mph N/A   Unknown
1:35 PM 50.0 °F - 32.0 °F 50% 30.67 in 10.0 mi ESE 18.4 mph 25.3 mph N/A   Unknown
1:55 PM 48.2 °F - 32.0 °F 54% 30.68 in 10.0 mi ESE 18.4 mph 26.5 mph N/A   Unknown
2:15 PM 48.2 °F - 35.6 °F 62% 30.68 in 10.0 mi ESE 18.4 mph 23.0 mph N/A   Unknown
2:35 PM 46.4 °F 39.2 °F 33.8 °F 62% 30.66 in 10.0 mi East 18.4 mph 23.0 mph N/A   Unknown
2:55 PM 46.4 °F 39.5 °F 32.0 °F 57% 30.65 in 10.0 mi ESE 17.3 mph 20.7 mph N/A   Unknown
3:15 PM 46.4 °F 40.1 °F 32.0 °F 57% 30.64 in 10.0 mi ESE 15.0 mph - N/A   Unknown
3:35 PM 46.4 °F 39.8 °F 32.0 °F 57% 30.65 in 10.0 mi East 16.1 mph 24.2 mph N/A   Unknown
3:55 PM 46.4 °F 40.7 °F 32.0 °F 57% 30.65 in 10.0 mi ESE 12.7 mph 20.7 mph N/A   Unknown
4:15 PM 46.4 °F 40.4 °F 32.0 °F 57% 30.64 in 10.0 mi East 13.8 mph 23.0 mph N/A   Unknown
4:35 PM 44.6 °F 37.8 °F 32.0 °F 61% 30.64 in 10.0 mi East 15.0 mph 19.6 mph N/A   Unknown
4:55 PM 44.6 °F 38.1 °F 32.0 °F 61% 30.64 in 10.0 mi ESE 13.8 mph - N/A   Unknown
5:15 PM 44.6 °F 38.1 °F 32.0 °F 61% 30.64 in 10.0 mi East 13.8 mph - N/A   Unknown
5:35 PM 44.6 °F 37.8 °F 32.0 °F 61% 30.63 in 10.0 mi East 15.0 mph 19.6 mph N/A   Unknown
5:55 PM 42.8 °F 35.8 °F 32.0 °F 66% 30.62 in 10.0 mi ENE 13.8 mph 24.2 mph N/A   Unknown
6:15 PM 42.8 °F 36.6 °F 32.0 °F 66% 30.63 in 10.0 mi East 11.5 mph 18.4 mph N/A   Unknown
6:35 PM 41.0 °F 33.1 °F 32.0 °F 70% 30.62 in 10.0 mi ENE 15.0 mph 18.4 mph N/A   Unknown
6:55 PM 41.0 °F 34.3 °F 30.2 °F 65% 30.61 in 10.0 mi East 11.5 mph 19.6 mph N/A   Unknown
7:15 PM 41.0 °F 33.1 °F 28.4 °F 61% 30.61 in 10.0 mi East 15.0 mph 18.4 mph N/A   Unknown
7:35 PM 39.2 °F 32.0 °F 30.2 °F 70% 30.62 in 10.0 mi ENE 11.5 mph - N/A   Unknown
7:55 PM 39.2 °F 31.2 °F 32.0 °F 75% 30.62 in 10.0 mi ENE 13.8 mph 19.6 mph N/A   Unknown
8:15 PM 39.2 °F 31.6 °F 32.0 °F 75% 30.61 in 10.0 mi ENE 12.7 mph 18.4 mph N/A   Unknown
8:35 PM 39.2 °F 32.5 °F 32.0 °F 75% 30.61 in 10.0 mi ENE 10.4 mph - N/A   Unknown
8:55 PM 39.2 °F 32.0 °F 32.0 °F 75% 30.61 in 10.0 mi ENE 11.5 mph 19.6 mph N/A   Unknown
9:15 PM 39.2 °F 32.0 °F 32.0 °F 75% 30.60 in 10.0 mi ENE 11.5 mph - N/A   Unknown
9:35 PM 39.2 °F 34.2 °F 32.0 °F 75% 30.61 in 10.0 mi East 6.9 mph - N/A   Unknown
9:55 PM 39.2 °F 33.6 °F 32.0 °F 75% 30.60 in 10.0 mi ENE 8.1 mph - N/A   Unknown
10:15 PM 39.2 °F 32.5 °F 32.0 °F 75% 30.59 in 10.0 mi ENE 10.4 mph - N/A   Unknown
10:35 PM 39.2 °F 33.0 °F 32.0 °F 75% 30.58 in 10.0 mi East 9.2 mph - N/A   Unknown
10:55 PM 39.2 °F 33.0 °F 32.0 °F 75% 30.58 in 10.0 mi ENE 9.2 mph 16.1 mph N/A   Unknown
11:15 PM 39.2 °F 32.5 °F 32.0 °F 75% 30.57 in 10.0 mi ENE 10.4 mph - N/A   Unknown
11:35 PM 39.2 °F 32.5 °F 32.0 °F 75% 30.57 in 10.0 mi ENE 10.4 mph 16.1 mph N/A   Unknown
11:55 PM 39.2 °F 33.0 °F 32.0 °F 75% 30.55 in 10.0 mi ENE 9.2 mph - N/A   Unknown